Time,TemperatureF,DewpointF,PressureIn,WindDirection,WindDirectionDegrees,WindSpeedMPH,WindSpeedGustMPH,Humidity,HourlyPrecipIn,Conditions,Clouds,dailyrainin,SoftwareType,DateUTC
2013-04-28 00:09:00,53.8,52.0,30.18,ENE,70,2.0,6.0,95,0.01,,,0.85,weatherlink.com 1.10,2013-04-28 04:09:00,
2013-04-28 00:24:00,53.9,53.0,30.18,East,81,2.0,4.0,95,0.01,,,0.00,weatherlink.com 1.10,2013-04-28 04:24:00,
2013-04-28 00:39:00,53.4,52.0,30.16,East,84,3.0,5.0,95,0.01,,,0.00,weatherlink.com 1.10,2013-04-28 04:39:00,
2013-04-28 00:54:00,53.2,52.0,30.17,East,84,3.0,7.0,96,0.00,,,0.00,weatherlink.com 1.10,2013-04-28 04:54:00,
2013-04-28 01:09:00,53.3,52.0,30.16,ENE,68,2.0,3.0,96,0.00,,,0.00,weatherlink.com 1.10,2013-04-28 05:09:00,
2013-04-28 01:24:00,53.4,52.0,30.15,East,94,1.0,6.0,96,0.00,,,0.00,weatherlink.com 1.10,2013-04-28 05:24:00,
2013-04-28 01:39:00,53.1,52.0,30.13,East,89,4.0,7.0,96,0.00,,,0.00,weatherlink.com 1.10,2013-04-28 05:39:00,
2013-04-28 01:54:00,53.0,52.0,30.12,East,81,1.0,8.0,96,0.00,,,0.00,weatherlink.com 1.10,2013-04-28 05:54:00,
2013-04-28 02:09:00,52.4,51.0,30.14,NNE,12,1.0,4.0,96,0.00,,,0.00,weatherlink.com 1.10,2013-04-28 06:09:00,
2013-04-28 02:24:00,52.7,52.0,30.13,ESE,122,0.0,5.0,97,0.00,,,0.00,weatherlink.com 1.10,2013-04-28 06:24:00,
2013-04-28 02:39:00,52.8,52.0,30.11,ESE,108,4.0,6.0,96,0.00,,,0.00,weatherlink.com 1.10,2013-04-28 06:39:00,
2013-04-28 02:54:00,52.9,52.0,30.12,NE,34,1.0,5.0,95,0.00,,,0.00,weatherlink.com 1.10,2013-04-28 06:54:00,
2013-04-28 03:09:00,52.2,51.0,30.12,WNW,299,3.0,4.0,97,0.00,,,0.00,weatherlink.com 1.10,2013-04-28 07:09:00,
2013-04-28 03:24:00,52.3,52.0,30.12,East,86,1.0,2.0,97,0.00,,,0.00,weatherlink.com 1.10,2013-04-28 07:24:00,
2013-04-28 03:39:00,52.3,52.0,30.12,NNW,343,2.0,2.0,97,0.00,,,0.00,weatherlink.com 1.10,2013-04-28 07:39:00,
2013-04-28 03:55:00,52.1,51.0,30.12,NW,304,2.0,4.0,97,0.00,,,0.00,weatherlink.com 1.10,2013-04-28 07:55:00,
2013-04-28 04:09:00,52.2,51.0,30.14,NW,324,2.0,5.0,97,0.01,,,0.01,weatherlink.com 1.10,2013-04-28 08:09:00,
2013-04-28 04:25:00,52.3,52.0,30.14,NW,317,4.0,8.0,98,0.04,,,0.04,weatherlink.com 1.10,2013-04-28 08:25:00,
2013-04-28 04:40:00,52.5,52.0,30.14,NNW,346,3.0,10.0,98,0.07,,,0.07,weatherlink.com 1.10,2013-04-28 08:40:00,
2013-04-28 04:55:00,52.6,52.0,30.13,NE,47,3.0,9.0,98,0.16,,,0.16,weatherlink.com 1.10,2013-04-28 08:55:00,
2013-04-28 05:10:00,52.7,52.0,30.12,ENE,72,2.0,8.0,97,0.18,,,0.19,weatherlink.com 1.10,2013-04-28 09:10:00,
2013-04-28 05:25:00,52.8,52.0,30.12,NW,311,9.0,13.0,97,0.17,,,0.21,weatherlink.com 1.10,2013-04-28 09:25:00,
2013-04-28 05:40:00,52.8,52.0,30.13,NE,46,3.0,6.0,97,0.15,,,0.22,weatherlink.com 1.10,2013-04-28 09:40:00,
2013-04-28 05:55:00,53.0,53.0,30.17,NNW,337,1.0,10.0,98,0.15,,,0.31,weatherlink.com 1.10,2013-04-28 09:55:00,
2013-04-28 06:10:00,52.9,52.0,30.16,NW,319,2.0,4.0,98,0.22,,,0.41,weatherlink.com 1.10,2013-04-28 10:10:00,
2013-04-28 06:25:00,53.1,53.0,30.15,ESE,110,4.0,5.0,98,0.28,,,0.49,weatherlink.com 1.10,2013-04-28 10:25:00,
2013-04-28 06:40:00,53.0,53.0,30.16,ESE,115,3.0,7.0,98,0.36,,,0.58,weatherlink.com 1.10,2013-04-28 10:40:00,
2013-04-28 06:55:00,53.0,53.0,30.16,ESE,110,4.0,6.0,98,0.35,,,0.67,weatherlink.com 1.10,2013-04-28 10:55:00,
2013-04-28 07:10:00,52.8,52.0,30.18,ESE,117,6.0,9.0,98,0.36,,,0.77,weatherlink.com 1.10,2013-04-28 11:10:00,
2013-04-28 07:25:00,52.8,52.0,30.17,SE,146,8.0,12.0,98,0.36,,,0.86,weatherlink.com 1.10,2013-04-28 11:25:00,
2013-04-28 07:40:00,52.6,52.0,30.13,East,98,9.0,19.0,98,0.33,,,0.91,weatherlink.com 1.10,2013-04-28 11:40:00,
2013-04-28 07:55:00,52.6,52.0,30.12,SE,140,11.0,22.0,98,0.23,,,0.91,weatherlink.com 1.10,2013-04-28 11:55:00,
2013-04-28 08:10:00,52.9,52.0,30.12,SSE,153,9.0,14.0,98,0.14,,,0.91,weatherlink.com 1.10,2013-04-28 12:10:00,
2013-04-28 08:25:00,53.2,53.0,30.13,ESE,112,5.0,12.0,98,0.04,,,0.91,weatherlink.com 1.10,2013-04-28 12:25:00,
2013-04-28 08:40:00,53.0,53.0,30.13,ESE,103,4.0,12.0,98,0.00,,,0.91,weatherlink.com 1.10,2013-04-28 12:40:00,
2013-04-28 08:55:00,53.1,53.0,30.14,East,81,5.0,10.0,98,0.00,,,0.91,weatherlink.com 1.10,2013-04-28 12:55:00,
2013-04-28 09:10:00,53.3,53.0,30.15,East,86,3.0,7.0,98,0.00,,,0.91,weatherlink.com 1.10,2013-04-28 13:10:00,
2013-04-28 09:25:00,53.4,53.0,30.17,SE,138,0.0,4.0,98,0.01,,,0.92,weatherlink.com 1.10,2013-04-28 13:25:00,
2013-04-28 09:40:00,53.5,53.0,30.18,NNE,20,0.0,1.0,98,0.05,,,0.96,weatherlink.com 1.10,2013-04-28 13:40:00,
2013-04-28 09:55:00,53.4,53.0,30.18,NNW,342,0.0,2.0,98,0.10,,,1.01,weatherlink.com 1.10,2013-04-28 13:55:00,
2013-04-28 10:10:00,53.4,53.0,30.20,NW,321,0.0,3.0,98,0.18,,,1.09,weatherlink.com 1.10,2013-04-28 14:10:00,
2013-04-28 10:25:00,53.6,53.0,30.19,East,93,0.0,3.0,98,0.25,,,1.17,weatherlink.com 1.10,2013-04-28 14:25:00,
2013-04-28 10:40:00,53.7,53.0,30.20,NNW,347,1.0,3.0,98,0.25,,,1.21,weatherlink.com 1.10,2013-04-28 14:40:00,
2013-04-28 10:55:00,53.9,53.0,30.18,ENE,64,2.0,6.0,98,0.25,,,1.26,weatherlink.com 1.10,2013-04-28 14:55:00,
2013-04-28 11:10:00,53.8,53.0,30.16,SE,133,8.0,14.0,98,0.20,,,1.30,weatherlink.com 1.10,2013-04-28 15:10:00,
2013-04-28 11:25:00,53.8,53.0,30.18,SSE,148,5.0,14.0,98,0.18,,,1.35,weatherlink.com 1.10,2013-04-28 15:25:00,
2013-04-28 11:40:00,54.1,54.0,30.18,SE,141,4.0,12.0,98,0.19,,,1.40,weatherlink.com 1.10,2013-04-28 15:40:00,
2013-04-28 11:55:00,54.0,54.0,30.17,SE,132,6.0,12.0,98,0.20,,,1.46,weatherlink.com 1.10,2013-04-28 15:55:00,
2013-04-28 12:10:00,54.1,54.0,30.14,East,97,7.0,13.0,98,0.21,,,1.51,weatherlink.com 1.10,2013-04-28 16:10:00,
2013-04-28 12:25:00,54.4,54.0,30.14,East,91,9.0,16.0,98,0.17,,,1.53,weatherlink.com 1.10,2013-04-28 16:25:00,
2013-04-28 12:40:00,54.5,54.0,30.14,ESE,117,7.0,18.0,98,0.13,,,1.53,weatherlink.com 1.10,2013-04-28 16:40:00,
2013-04-28 12:55:00,54.9,54.0,30.15,ESE,110,6.0,9.0,98,0.08,,,1.55,weatherlink.com 1.10,2013-04-28 16:55:00,
2013-04-28 13:10:00,54.9,54.0,30.14,ESE,112,9.0,12.0,98,0.08,,,1.59,weatherlink.com 1.10,2013-04-28 17:10:00,
2013-04-28 13:25:00,55.0,55.0,30.11,East,88,12.0,20.0,98,0.09,,,1.62,weatherlink.com 1.10,2013-04-28 17:25:00,
2013-04-28 13:40:00,55.1,55.0,30.11,SE,134,14.0,25.0,98,0.11,,,1.64,weatherlink.com 1.10,2013-04-28 17:40:00,
2013-04-28 13:55:00,55.1,55.0,30.09,South,169,12.0,25.0,98,0.10,,,1.65,weatherlink.com 1.10,2013-04-28 17:55:00,
2013-04-28 14:10:00,55.1,55.0,30.08,ESE,105,24.0,26.0,98,0.07,,,1.66,weatherlink.com 1.10,2013-04-28 18:10:00,
2013-04-28 14:25:00,55.2,55.0,30.09,SSE,151,9.0,20.0,98,0.03,,,1.66,weatherlink.com 1.10,2013-04-28 18:25:00,
2013-04-28 14:40:00,55.1,55.0,30.08,East,79,14.0,21.0,98,0.03,,,1.67,weatherlink.com 1.10,2013-04-28 18:40:00,
2013-04-28 14:55:00,55.3,55.0,30.07,ESE,110,12.0,19.0,98,0.06,,,1.71,weatherlink.com 1.10,2013-04-28 18:55:00,
2013-04-28 15:10:00,55.7,55.0,30.08,East,91,4.0,17.0,98,0.05,,,1.71,weatherlink.com 1.10,2013-04-28 19:10:00,
2013-04-28 15:25:00,56.2,56.0,30.07,East,84,2.0,8.0,98,0.06,,,1.72,weatherlink.com 1.10,2013-04-28 19:25:00,
2013-04-28 15:40:00,56.7,56.0,30.07,North,357,1.0,5.0,98,0.05,,,1.72,weatherlink.com 1.10,2013-04-28 19:40:00,
2013-04-28 15:55:00,56.8,56.0,30.06,NE,53,1.0,2.0,98,0.01,,,1.72,weatherlink.com 1.10,2013-04-28 19:55:00,
2013-04-28 16:10:00,57.1,56.0,30.04,East,89,5.0,5.0,97,0.01,,,1.72,weatherlink.com 1.10,2013-04-28 20:10:00,
2013-04-28 16:25:00,57.3,57.0,30.03,East,97,4.0,4.0,97,0.00,,,1.72,weatherlink.com 1.10,2013-04-28 20:25:00,
2013-04-28 16:40:00,57.5,57.0,30.04,NW,304,0.0,4.0,97,0.00,,,1.72,weatherlink.com 1.10,2013-04-28 20:40:00,
2013-04-28 16:55:00,57.4,57.0,30.01,North,354,3.0,3.0,97,0.00,,,1.72,weatherlink.com 1.10,2013-04-28 20:55:00,
2013-04-28 17:10:00,57.4,57.0,30.02,North,351,1.0,3.0,97,0.00,,,1.72,weatherlink.com 1.10,2013-04-28 21:10:00,
2013-04-28 17:26:00,57.4,57.0,30.03,NNE,14,0.0,6.0,97,0.00,,,1.72,weatherlink.com 1.10,2013-04-28 21:26:00,
2013-04-28 17:41:00,57.6,57.0,30.03,North,3,2.0,3.0,97,0.00,,,1.72,weatherlink.com 1.10,2013-04-28 21:41:00,
2013-04-28 17:56:00,57.4,57.0,30.02,NNW,335,1.0,2.0,97,0.00,,,1.72,weatherlink.com 1.10,2013-04-28 21:56:00,
2013-04-28 18:11:00,57.8,57.0,30.04,ENE,65,0.0,3.0,97,0.00,,,1.72,weatherlink.com 1.10,2013-04-28 22:11:00,
2013-04-28 18:26:00,57.7,57.0,30.04,WNW,289,0.0,2.0,97,0.00,,,1.72,weatherlink.com 1.10,2013-04-28 22:26:00,
2013-04-28 18:41:00,58.1,57.0,30.03,East,91,0.0,2.0,97,0.00,,,1.72,weatherlink.com 1.10,2013-04-28 22:41:00,
2013-04-28 18:56:00,58.0,57.0,30.02,NW,316,0.0,1.0,96,0.00,,,1.72,weatherlink.com 1.10,2013-04-28 22:56:00,
2013-04-28 19:11:00,57.9,57.0,30.02,West,260,1.0,1.0,96,0.00,,,1.72,weatherlink.com 1.10,2013-04-28 23:11:00,
2013-04-28 19:26:00,57.8,57.0,30.02,WNW,285,0.0,3.0,97,0.00,,,1.72,weatherlink.com 1.10,2013-04-28 23:26:00,
2013-04-28 19:41:00,57.8,57.0,30.02,West,267,4.0,5.0,96,0.00,,,1.72,weatherlink.com 1.10,2013-04-28 23:41:00,
2013-04-28 19:56:00,57.9,57.0,30.03,West,263,3.0,7.0,96,0.00,,,1.72,weatherlink.com 1.10,2013-04-28 23:56:00,
2013-04-28 20:11:00,57.9,56.0,30.03,WSW,249,7.0,7.0,94,0.00,,,1.72,weatherlink.com 1.10,2013-04-29 00:11:00,
2013-04-28 20:26:00,57.9,57.0,30.03,SW,222,2.0,8.0,95,0.00,,,1.72,weatherlink.com 1.10,2013-04-29 00:26:00,
2013-04-28 20:41:00,57.8,56.0,30.03,SW,219,1.0,6.0,95,0.00,,,1.72,weatherlink.com 1.10,2013-04-29 00:41:00,
2013-04-28 20:56:00,57.6,56.0,30.03,SW,214,1.0,6.0,95,0.00,,,1.72,weatherlink.com 1.10,2013-04-29 00:56:00,
2013-04-28 21:11:00,57.3,56.0,30.03,SSW,202,3.0,6.0,96,0.00,,,1.72,weatherlink.com 1.10,2013-04-29 01:11:00,
2013-04-28 21:26:00,57.1,56.0,30.04,SSW,211,3.0,5.0,95,0.00,,,1.72,weatherlink.com 1.10,2013-04-29 01:26:00,
2013-04-28 21:41:00,57.3,56.0,30.05,WSW,240,3.0,7.0,94,0.00,,,1.72,weatherlink.com 1.10,2013-04-29 01:41:00,
2013-04-28 21:56:00,57.2,56.0,30.04,WNW,301,1.0,5.0,94,0.00,,,1.72,weatherlink.com 1.10,2013-04-29 01:56:00,
2013-04-28 22:11:00,56.7,56.0,30.05,NNW,338,2.0,3.0,96,0.00,,,1.72,weatherlink.com 1.10,2013-04-29 02:11:00,
2013-04-28 22:26:00,56.9,56.0,30.05,WNW,286,2.0,4.0,95,0.00,,,1.72,weatherlink.com 1.10,2013-04-29 02:26:00,
2013-04-28 22:41:00,57.1,55.0,30.06,WNW,298,5.0,5.0,94,0.00,,,1.72,weatherlink.com 1.10,2013-04-29 02:41:00,
2013-04-28 22:56:00,57.1,55.0,30.06,WSW,252,2.0,5.0,94,0.00,,,1.72,weatherlink.com 1.10,2013-04-29 02:56:00,
2013-04-28 23:11:00,57.0,55.0,30.06,WSW,257,6.0,6.0,93,0.00,,,1.72,weatherlink.com 1.10,2013-04-29 03:11:00,
2013-04-28 23:26:00,57.0,55.0,30.06,West,260,6.0,9.0,93,0.00,,,1.72,weatherlink.com 1.10,2013-04-29 03:26:00,
2013-04-28 23:41:00,57.2,55.0,30.06,SW,236,5.0,8.0,92,0.00,,,1.72,weatherlink.com 1.10,2013-04-29 03:41:00,
2013-04-28 23:56:00,57.3,55.0,30.06,WSW,246,1.0,7.0,92,0.00,,,1.72,weatherlink.com 1.10,2013-04-29 03:56:00,